Location: Unspecified
(35.7250°N, 0.0000°E)
Time: 09:56:37
(UTC+00:00)

Vanguard 1 Rocket - Pass Details

Date: 20 June 2019
Orbit: 651 x 4225 km, 34.3° (Epoch: 18 July)

Event Time Altitude Azimuth Distance (km) Brightness Sun altitude
Rises 17:22:01 0° 240° (WSW) 7,792 12.8 21.1°
Reaches altitude 10° 17:28:03 10° 238° (WSW) 6,310 12.4 19.9°
Maximum altitude 17:45:21 64° 163° (SSE) 2,192 9.4 16.6°
Drops below altitude 10° 17:54:01 10° 84° (E) 3,359 9.8 14.9°
Sets 17:56:14 0° 81° (E) 4,046 10.2 14.5°
